www.pogodaiklimat.ru

Погода и климат >> Архив погоды >> Австралия >> Квинсленд >> База ВВС Scherger


ПОГОДА на Базе ВВС Scherger

  • Прогноз погоды на Базе ВВС Scherger
  • Монитор погоды на Базе ВВС Scherger

АРХИВ ПОГОДЫ на Базе ВВС Scherger

Время (UTC), дата Ветер
(напр.,м/с)
 
Видим.   Явления Облачность Т
(С)
Тd
(С)
f
(%)
Тe
(С)
Тes
(С)
Комфортность P
(гПа)
Po
(гПа)
Тmin
(С)
Tmax
(С)
R
(мм)
R24
(мм)
S
(см)
02 17.03 ЮВ 3 н/о 1/1 600 м
[]
+31.2 +22.5 60 +41 +58 опасность
перегрева
1008.9 1004.4 +23.7
05 17.03 З 3 н/о в посл. час дождь {туман} 1/0
[]
+32.0 +24.1 63 +44 +56 опасность
перегрева
1005.9 1001.4
08 17.03 З 2 н/о туман местами 8/8 1500 м
[]
+24.2 +23.3 95 +32 +33 очень
душно
1007.2 1002.7
11 17.03 СВ 2 н/о туман 10/10 300 м
[]
+24.7 +24.0 96 +34 +34 очень
душно
1009.5 1005.0
14 17.03 Ю 3 н/о туман местами 10/10 200 м
[]
+24.9 +24.0 95 +34 +34 очень
душно
1009.9 1005.4 +32.8
17 17.03 штиль 0 н/о {туман} н/о +24.3 +23.6 96 +33 +33 очень
душно
1007.0 1002.5
20 17.03 штиль 0 н/о н/о +24.1 +23.4 96 +32 +32 очень
душно
1007.5 1003.0
23 17.03 Ю 3 н/о 1/1 100 м
[]
+25.5 +23.7 90 +35 +41 очень
душно
1008.5 1004.0
02 18.03 Ю 2 н/о в посл. час дождь {туман} 4/4 300 м
[]
+28.6 +23.5 74 +39 +52 опасность
солнечного
удара
1007.4 1002.9 +23.6
05 18.03 З 1 н/о в посл. час дождь {туман} 5/5 300 м
[]
+27.0 +25.2 90 +39 +48 очень
душно
1004.6 1000.1
08 18.03 З 2 н/о туман местами 10/10 1000 м
[]
+26.0 +24.6 92 +37 +37 очень
душно
1004.5 1000.0
11 18.03 ЮЗ 3 н/о {туман} 10/0
[]
+24.3 +23.4 95 +33 +33 очень
душно
1007.1 1002.6
14 18.03 З 2 н/о 9/0
[]
+24.2 +23.2 94 +32 +32 очень
душно
1006.8 1002.3 +31.6
17 18.03 ЮЗ 3 н/о 9/0
[]
+24.4 +23.2 93 +33 +33 очень
душно
1004.8 1000.3
20 18.03 ЮЗ 3 н/о в посл. час дождь {туман} 6/0
[]
+24.4 +22.5 89 +32 +32 очень
душно
1004.2 999.7
23 18.03 ЮЗ 4 н/о {туман} 4/0
[]
+25.9 +22.6 82 +34 +39 очень
душно
1005.4 1000.9
02 19.03 ЮЗ 4 н/о 8/8 600 м
[]
+28.5 +22.5 70 +37 +40 очень
душно
1004.0 999.5 +24.1
05 19.03 З 4 н/о 10/10 600 м
[]
+29.5 +23.9 72 +41 +41 опасность
перегрева
1001.3 996.8
08 19.03 З 3 н/о в посл. час дождь {туман} 6/6 1000 м
[]
+26.3 +24.7 91 +37 +37 очень
душно
1000.9 996.4
11 19.03 З 4 н/о в посл. час дождь {туман} 10/0
[]
+26.0 +23.1 84 +35 +35 очень
душно
1002.2 997.7
14 19.03 З 4 н/о {туман} 10/10 600 м
[]
+25.3 +22.8 86 +33 +33 очень
душно
1001.7 997.2 +29.7
17 19.03 З 6 н/о туман местами 10/10 300 м
[]
+24.9 +23.5 92 +34 +34 очень
душно
997.9 993.4
20 19.03 З 6 н/о туман 10/10 300 м
[]
+24.5 +23.1 92 +33 +33 очень
душно
997.1 992.6
23 19.03 СЗ 6 н/о туман 10/10 100 м
[]
+24.8 +23.9 95 +34 +34 очень
душно
998.1 993.6
02 20.03 СЗ 5 н/о туман местами 9/9 200 м
[]
+25.8 +24.4 92 +36 +37 очень
душно
996.6 992.1 +24.4
05 20.03 С 7 н/о туман 10/10 100 м
[]
+24.7 +24.0 96 +34 +34 очень
душно
992.6 988.1
08 20.03 СЗ 5 н/о туман 10/10 100 м
[]
+25.1 +24.4 96 +35 +35 очень
душно
993.0 988.5
11 20.03 С 7 н/о туман местами 9/9 200 м
[]
+25.2 +24.3 95 +35 +35 очень
душно
994.0 989.5
14 20.03 С 8 н/о туман 10/10 200 м
[]
+24.9 +23.9 94 +34 +34 очень
душно
995.4 990.9 +26.6
17 20.03 С 6 н/о туман местами 10/10 200 м
[]
+24.4 +23.4 94 +33 +33 очень
душно
994.9 990.4
20 20.03 СВ 7 н/о туман 10/10 200 м
[]
+25.0 +24.0 94 +34 +34 очень
душно
994.8 990.3
23 20.03 С 7 н/о туман местами 10/10 300 м
[]
+25.3 +24.1 93 +35 +35 очень
душно
997.1 992.6
02 21.03 С 7 н/о в посл. час дождь {туман} 10/10 300 м
[]
+26.6 +23.7 84 +36 +36 очень
душно
997.3 992.8 +24.3
05 21.03 С 6 н/о туман местами 10/10 300 м
[]
+25.5 +23.6 89 +35 +35 очень
душно
996.2 991.7
08 21.03 С 6 н/о в посл. час дождь {туман} 10/10 600 м
[]
+26.0 +23.5 86 +35 +35 очень
душно
998.0 993.5
11 21.03 С 5 н/о {туман} 10/10 300 м
[]
+26.3 +23.8 86 +36 +36 очень
душно
1000.5 996.0
14 21.03 С 4 н/о {туман} 10/10 300 м
[]
+25.6 +23.8 90 +35 +35 очень
душно
1001.4 996.9 +27.5
17 21.03 СВ 3 н/о осадки 10/10 200 м
[]
+25.0 +23.8 93 +34 +34 очень
душно
1000.6 996.1 1
23 21.03 СВ 3 н/о {туман} 10/10 300 м
[]
+27.1 +24.7 87 +39 +39 очень
душно
1004.2 999.7
02 22.03 С 2 н/о в посл. час дождь {туман} 10/10 600 м
[]
+24.0 +22.8 93 +32 +32 очень
душно
1005.1 1000.6 +24.9
05 22.03 С 3 н/о в посл. час дождь {туман} 10/10 600 м
[]
+25.6 +23.5 88 +35 +35 очень
душно
1003.1 998.6
08 22.03 С 4 н/о {туман} 10/0
[]
+25.2 +22.7 86 +33 +33 очень
душно
1004.2 999.7
11 22.03 СЗ 2 н/о осадки н/о +24.6 +23.7 95 +33 +33 очень
душно
1007.2 1002.7 3
14 22.03 СВ 3 н/о {туман} 10/10 600 м
[]
+25.5 +24.5 94 +36 +36 очень
душно
1007.3 1002.8 +27.4
17 22.03 СВ 2 н/о {осадки} 6/6 600 м
[]
+24.9 +24.2 96 +34 +34 очень
душно
1005.4 1000.9 10
20 22.03 СВ 2 н/о 1/0
[]
+25.5 +24.5 94 +36 +36 очень
душно
1006.8 1002.3
23 22.03 СВ 4 н/о 6/6 300 м
[]
+26.7 +24.4 87 +37 +40 очень
душно
1009.3 1004.8
02 23.03 СВ 3 н/о {туман} 10/10 300 м
[]
+29.4 +24.3 74 +41 +41 опасность
перегрева
1009.5 1005.0 +23.9
05 23.03 СВ 2 н/о {туман} 3/0
[]
+26.6 +23.3 82 +36 +48 очень
душно
1008.0 1003.5
08 23.03 СВ 1 н/о {туман} 5/0
[]
+25.3 +24.1 93 +35 +35 очень
душно
1008.0 1003.5
11 23.03 штиль 0 н/о {туман} 10/0
[]
+24.2 +22.8 92 +32 +32 очень
душно
1010.1 1005.6
14 23.03 СВ 2 н/о 10/0
[]
+24.5 +23.8 96 +33 +33 очень
душно
1009.2 1004.7 +30.0
17 23.03 штиль 0 н/о 9/9 100 м
[]
+25.0 +24.7 98 +35 +35 очень
душно
1008.8 1004.3
20 23.03 СВ 2 н/о 9/9 100 м
[]
+24.9 +24.6 98 +35 +35 очень
душно
1009.8 1005.3
23 23.03 СВ 2 н/о 8/8 200 м
[]
+27.6 +24.4 83 +39 +40 очень
душно
1011.6 1007.1

 

Местоположение метеостанции База ВВС Scherger (Квинсленд, Австралия): широта -12.62 долгота 142.09 высота над уровнем моря 39 м.

В архиве по умолчанию представлена погода на Базе ВВС Scherger за последнюю неделю. Архивные данные за месяц целиком и за предыдущие месяцы, начиная с января 2011 года, Вы можете получить, выбрав интересующий диапазон дат из раскрывающегося списка и нажав кнопку "Ввод!".


*Определитесь, кто Вы:
робот инопланетянин человек

Внимание! Время в таблицах - всемирное. Для получения местного времени необходимо прибавить поправку, которая равна 10 ч.

Смотрите также архив погоды в соседних городах и на ближайших метеорологических станциях:

Погода в Аэропорту Вейпа (Квинсленд, Австралия) (21 км)
Погода в Аэропорту Локхарт (Квинсленд, Австралия) (132 км)
Погода в Аэропорту Коэн (Квинсленд, Австралия) (170 км)
Погода на Острове Хорн (Квинсленд, Австралия) (228 км)
Погода на Острове Коконат (Квинсленд, Австралия) (305 км)
Погода в Кованьяме (Квинсленд, Австралия) (320 км)
Погода в Палмервилле (Квинсленд, Австралия) (432 км)
Погода на Мысе Флэттери (Квинсленд, Австралия) (436 км)
Погода в Куктауне (Квинсленд, Австралия) (459 км)
Погода в Мерауке (Индонезия) (498 км)

Пояснения к столбцам:

Ветер - указаны скорость ветра в м/с - средняя за 10 мин, порывы в срок и между сроками (в фигурных скобках) и направление, откуда дует ветер: С - северный, СВ - северо-восточный, В - восточный, ЮВ - юго-восточный, Ю - южный, ЮЗ - юго-западный, З - западный, СЗ - северо-западный.
Видимость - горизонтальная дальность видимости в метрах или километрах. При видимости от 1 до 10 км при отсутствии осадков обычно наблюдается дымка, при ухудшении видимости до 1 км и менее - туман. В сухую погоду видимость может ухудшаться дымом, пылью или мглою.
Явления - указаны атмосферные явления, наблюдавшиеся в срок или в последний час перед сроком; фигурными скобками обозначены явления, наблюдавшиеся между сроками (за 1-3 часа до срока); квадратными скобками обозначены град или гололедные отложения с указанием их диаметра в мм.
Облачность - указаны через наклонную черту общая и нижняя облачность в баллах и высота нижней границы облаков в метрах; квадратными скобками обозначены формы облаков: Ci - перистые, Cs - перисто-слоистые, Cc - перисто-кучевые, Ac - высококучевые, As - высокослоистые, Sc - слоисто-кучевые, Ns - слоисто-дождевые, Cu - кучевые, Cb - кучево-дождевые. Подробнее классификацию облаков см. в Атласе облаков (PDF).
T - Температура воздуха - температура, измеренная на высоте 2 м над землей.
Td - Температура точки росы - температура, при понижении до которой содержащийся в воздухе водяной пар достигнет насыщения.
f - Относительная влажность воздуха - влажноcть воздуха, измеренная на высоте 2 м над землей.
Te - Эффективная температура - температура, которую ощущает одетый по сезону человек в тени. Характеристика душности погоды. При расчете учитывается влияние влажности воздуха и скорости ветра на теплоощущения человека.
Tes - Эффективная температура на солнце - температура, которую ощущает человек, с поправкой на солнечный нагрев. Характеристика знойности погоды. Зависит от высоты солнца над горизонтом, облачности и скорости ветра. Ночью, в пасмурную погоду, а также при ветре 12 м/с и более поправка равна нулю.
P - Атмосферное давление - приведенное к уровню моря атмосферное давление.
Po - Атмосферное давление - измеренное на уровне метеостанции атмосферное давление.
Tmin - Минимальная температура - минимум температуры воздуха на высоте 2 м над землей.
Tmax - Максимальная температура - максимум температуры воздуха на высоте 2 м над землей.
R - Количество осадков - Количество выпавших осадков за период времени, мм. При наведении курсора мыши на число - период времени, за который выпало указанное количество осадков.
R24 - Количество осадков - Количество выпавших осадков за 24 часа, мм.
S - Снежный покров - Высота снежного покрова, см. При наведении курсора мыши на число - состояние снежного покрова и степень покрытия местности в баллах.